sat.trackr.live / text

‹ back to catalog

STARLINK-4779

NORAD 53864 · 2022-114AY

PAYLOAD ACTIVE UNKNOWN

§ Identity

Operator
Country
US
Launch date
2022-09-19
Launch site
AFETR
Launch vehicle
Mass (kg)
RCS (m²)

Purposes: comms

External: N2YO · Heavens-Above · Gunter

§ Orbital elements

Epoch: 2026-05-25T04:02:03.533280Z

Period
95.44 min
Inclination
53.2144°
Eccentricity
0.0001296
Mean motion
15.08837925 rev/d
Perigee alt
538.9 km
Apogee alt
540.6 km
Semi-major
6,917.9 km
B*
-1.1295e-5
RAAN
300.3610°
Arg perigee
85.4571°
Mean anomaly
274.6569°
Rev number
20,466

§ Raw data

STARLINK-47791 53864U 22114AY  26145.16809645 -.00000468  00000+0 -11295-4 0  99942 53864  53.2144 300.3610 0001296  85.4571 274.6569 15.08837925204663

JSON: /api/v1/satellites/53864 · /tle

For live sub-satellite position, see the globe view (requires WebGL).

§ Visibility from observer

Set your observer location to see the next 7 days of passes ≥ 10°. The values pass through the URL so the page stays shareable.

No JS? Fill the form by hand. The geolocation button needs JavaScript.